User: anonymous   Login
Location: Igri�s
(42.2144°N, 0.4320°W)
Time: 07:28:36
(UTC+00:00)
Language:

Cosmos 1570 Rocket - Orbit

View from above orbital plane
View from above orbital plane
View from above satellite
View from above satellite

Ground track
Ground track

The orbit data is extracted from the following two-line orbital elements,

1 15032U 84056B   20296.21181973  .00000054  00000-0  27993-4 0  9998
2 15032  74.0724   0.2273 0017981 217.2427 142.7480 14.34808868902324
Epoch (UTC): 22 October 2020 05:05:01
Eccentricity: 0.0017981
inclination: 74.0724°
perigee height: 763 km
apogee height: 788 km
right ascension of ascending node: 0.2273°
argument of perigee: 217.2427°
revolutions per day: 14.34808868
mean anomaly at epoch: 142.7480°
orbit number at epoch: 90232

The dashed part of the orbit path shows where the satellite is in the earth's shadow,  

DLR